SCP
0 0 0 0 0 0 0 0 0 0 0 0 0 0 0 0 0 0 0 0 0 0 0 0 0 0 0 0 0 0 0 0 0 0 0 0 0 0 0 0 0 0 0
0 0 0 0 0 0 0 0 0 0 0 0 0 0 0 0 0 0 0 0 0 0 0 0 0 0 0 0 0 0 0 0 0 0 0 0 0 0 0 0 0 0 0
0 0 0 0 0 0 0 0 0 0 0 0 0 0 0 0 0 0 0 0 0 0 0 0 0 0 0 0 0 0 0 0 0 0 0 0 0 0 0 0 0 0 0
0 0 0 0 0 0 0 0 0 0 0 0 0 0 0 0 0 0 0 0 0 0 0 0 0 0 0 0 0 0 0 0 0 0 0 0 0 0 0 0 0 0 0
0 0 0 0 0 0 0 0 0 0 0 0 0 0 0 0 0 0 0 0 0 0 0 0 0 0 0 0 0 0 0 0 0 0 0 0 0 0 0 0 0 0 0
0 0 0 0 0 0 0 0 0 0 0 0 0 0 0 0 0 0 0 0 0 0 0 0 0 0 0 0 0 0 0 0 0 0 0 0 0 0 0 0 0 0 0
0 0 0 0 0 0 0 0 0 0 0 0 0 0 0 0 0 0 0 0 0 0 0 0 0 0 0 0 0 0 0 0 0 0 0 0 0 0 0 0 0 0 0
0 0 0 0 0 0 0 0 0 0 0 0 0 0 0 0 0 0 0 0 0 0 0 0 0 0 0 0 0 0 0 0 0 0 0 0 0 0 0 0 0 0 0
0 0 0 0 0 0 0 0 0 0 0 0 0 0 0 0 0 0 0 0 0 0 0 0 0 0 0 0 0 0 0 0 0 0 0 0 0 0 0 0 0 0 0
0 0 0 0 0 0 0 0 0 0 0 0 0 0 0 0 0 0 0 0 0 0 0 0 0 0 0 0 0 0 0 0 0 0 0 0 0 0 0 0 0 0 0
0 0 0 0 0 0 0 0 0 0 0 0 0 0 0 0 0 0 0 0 0 0 0 0 0 0 0 0 0 0 0 0 0 0 0 0 0 0 0 0 0 0 0
1 1 1 1 1 1 0 0 0 0 0 0 0 0 0 0 0 0 0 0 0 0 0 0 0 0 0 0 0 0 0 0 0 0 0 0 0 0 0 0 0 0 0
1 1 1 1 1 0 0 0 1 0 0 0 0 0 0 0 0 0 0 0 0 0 0 0 0 0 0 0 0 0 0 0 0 0 0 0 0 0 0 0 0 0 0
1 1 0 0 0 0 0 1 1 1 1 1 0 1 1 0 0 0 0 0 0 0 0 0 0 0 0 0 0 0 0 0 0 0 0 0 0 0 0 0 0 0 0
0 0 0 0 0 0 1 1 1 1 1 1 1 1 1 1 0 1 1 0 0 0 0 0 0 0 0 0 0 0 0 0 0 0 0 0 0 0 0 0 0 0 0
0 0 0 0 0 0 1 1 1 1 1 1 1 1 1 1 1 1 1 1 0 0 0 0 0 0 0 0 0 0 0 0 0 0 0 0 0 0 0 0 0 0 0
0 0 0 0 0 0 0 0 0 0 0 0 1 1 1 1 1 1 1 1 1 0 0 0 0 0 1 1 0 0 0 0 0 0 0 0 0 0 0 0 0 0 0
0 0 0 0 0 0 0 0 0 0 0 0 0 0 0 0 1 1 1 1 1 1 0 0 0 0 1 1 1 1 0 0 0 0 0 0 0 0 0 0 0 0 0
0 0 0 0 0 0 0 0 0 0 0 0 0 0 0 0 0 0 1 1 1 1 1 0 0 0 0 0 1 0 0 0 0 0 0 0 0 0 0 0 0 0 0
0 0 0 0 0 0 0 0 0 0 0 0 0 0 0 0 0 0 0 0 0 0 0 0 0 0 0 0 0 0 0 0 0 0 0 0 0 0 0 0 0 0 0
0 0 0 0 0 0 0 0 0 0 0 0 0 0 0 0 0 0 0 0 0 0 0 0 0 0 0 0 0 0 0 0 0 0 0 0 0 0 0 0 0 0 0
0 0 1 1 0 0 0 0 0 0 0 0 0 0 0 0 0 0 0 0 0 0 0 0 0 0 0 0 0 0 0 0 0 0 0 0 0 0 0 0 0 0 0
0 0 1 1 0 0 0 0 0 0 0 0 0 0 0 0 0 0 0 0 0 0 0 0 0 0 0 0 0 0 0 0 0 0 0 0 0 0 0 0 0 0 0
0 0 0 0 0 0 0 0 0 0 0 0 0 0 0 0 0 0 0 0 0 0 0 0 0 0 0 0 0 0 0 0 0 0 0 0 0 0 0 0 0 0 0
0 0 0 0 0 0 0 0 0 0 0 0 0 0 0 0 0 0 0 0 0 0 0 0 0 0 0 0 0 0 0 0 0 0 0 0 0 0 0 0 0 0 0
0 0 0 0 0 0 0 0 0 0 0 0 0 0 0 0 0 0 0 0 0 0 0 0 0 0 0 0 0 0 0 0 0 0 0 0 0 0 0 0 0 0 0
Wind_Speed
3 3 2 2 2 3 4 3 2 2 2 3 2 1 1 1 1 1 6 9 7 6 6 7 7 7 7 7 7 7 7 7 7 7 7 7 6 6 6 6 6 6 6
3 3 4 3 2 2 2 2 3 3 3 2 2 2 2 2 2 2 3 8 9 8 7 7 7 7 8 8 8 8 8 8 7 7 7 7 7 6 6 6 6 6 6
3 3 3 3 3 3 3 3 3 3 3 4 3 3 3 2 2 3 3 3 7 10 9 9 9 8 8 9 9 9 8 8 8 8 8 7 7 7 7 7 7 7 7
4 4 3 3 3 4 4 3 4 3 3 3 3 3 3 3 4 4 4 4 4 5 10 11 10 10 10 10 10 10 10 10 9 9 9 9 9 9 9 9 8 8 8
6 5 4 3 4 4 4 4 3 3 3 4 4 4 4 4 4 5 5 5 5 5 5 11 12 10 11 11 11 11 11 11 11 11 11 11 11 10 10 10 10 10 9
7 6 5 5 5 4 4 4 3 4 4 4 5 3 4 4 5 5 6 6 5 7 7 6 8 11 14 13 12 12 12 13 13 13 13 13 13 12 11 11 11 11 11
6 6 6 5 5 5 5 6 5 5 5 4 4 4 5 6 6 5 6 5 6 6 6 6 6 6 8 15 14 13 13 14 14 14 14 14 14 13 13 13 12 12 12
7 7 7 6 6 5 6 6 5 4 4 4 4 4 4 5 6 7 6 6 6 6 7 8 7 7 7 6 9 16 15 14 14 14 15 15 14 13 14 14 14 14 14
8 7 7 7 6 6 6 7 6 7 5 5 5 4 4 3 2 4 5 6 5 5 6 6 8 8 9 7 6 13 15 13 13 14 14 14 14 14 14 14 15 15 15
8 8 8 7 7 6 5 7 7 5 6 6 4 5 6 4 4 3 4 5 6 6 6 5 6 7 7 7 6 5 9 12 13 14 14 13 13 14 14 15 16 16 15
7 8 8 7 7 7 7 7 5 7 6 7 5 5 5 5 7 6 5 4 4 4 5 5 5 5 5 6 5 6 8 10 11 12 12 13 13 14 14 15 16 16 15
6 7 7 7 7 7 7 7 7 8 7 7 6 5 5 5 5 6 6 6 5 4 4 3 4 4 5 5 6 4 6 8 9 10 11 11 12 12 13 13 14 14 14
5 5 6 6 7 7 7 7 7 7 8 7 7 6 6 6 6 5 6 6 6 4 4 4 4 4 5 5 4 5 6 7 8 8 9 9 10 10 10 10 11 11 11
5 4 6 6 7 7 7 7 6 7 6 6 7 6 5 6 5 5 6 6 6 6 5 5 3 4 4 3 2 4 5 6 7 6 7 7 7 7 7 7 8 9 9
4 5 6 6 6 6 6 6 5 6 6 6 6 7 6 5 5 5 5 6 6 6 5 4 4 3 3 3 2 4 4 4 5 5 5 5 5 5 6 6 6 7 7
4 5 5 5 5 5 6 5 5 5 6 6 5 5 6 5 5 5 5 5 5 6 6 4 3 3 2 3 2 3 3 5 5 5 5 4 4 4 4 4 5 5 5
3 3 3 4 4 4 4 4 5 5 5 5 5 5 6 6 4 4 4 5 4 5 6 5 4 3 2 3 2 3 3 3 3 6 5 4 3 2 2 3 3 3 4
3 3 2 2 3 3 4 4 4 4 4 4 4 4 4 4 4 4 3 4 4 4 5 6 4 3 2 2 2 2 2 1 0 5 6 4 3 2 2 1 1 1 1
2 2 2 2 2 2 2 3 3 3 3 2 2 3 4 4 4 3 3 3 3 3 3 4 4 2 2 2 1 1 0 1 1 3 5 5 4 4 4 3 3 2 2
1 1 1 1 1 1 1 2 2 1 1 1 1 2 3 3 4 3 3 3 3 3 2 2 2 2 1 1 1 1 0 0 1 1 2 2 5 6 5 4 3 3 2
1 2 2 1 0 0 0 0 1 1 1 1 1 2 3 4 6 4 3 3 2 2 1 1 1 1 1 1 1 1 0 0 0 0 0 0 1 1 3 4 4 3 3
1 2 2 2 2 2 4 4 1 1 2 2 2 2 3 4 5 7 7 7 5 3 2 1 1 1 2 2 1 1 1 1 1 1 1 1 1 1 1 2 4 4 3
2 3 3 3 4 4 5 4 3 2 3 3 3 3 3 4 4 5 7 7 8 8 6 3 3 3 3 3 2 2 2 2 2 2 2 1 1 0 1 4 6 5 4
4 4 4 4 5 5 6 4 3 4 4 5 5 5 5 5 5 4 6 8 8 8 7 6 5 5 5 4 2 1 0 1 1 1 2 1 1 1 1 3 6 5 4
5 5 5 5 6 6 7 5 2 5 5 6 7 8 7 7 8 6 7 7 7 6 8 9 8 7 7 7 5 2 2 1 1 2 3 2 2 1 1 2 4 5 4
6 7 7 7 7 7 8 6 4 4 5 6 7 8 11 9 9 7 6 6 7 6 5 6 5 5 5 6 6 5 4 3 2 2 3 3 2 2 1 1 1 1 2
Wind_Direction
167 149 145 161 182 156 167 184 177 162 191 192 193 184 187 137 141 154 132 157 172 182 185 183 184 183 184 186 188 184 181 179 178 179 180 179 179 178 180 180 180 179 181
164 172 174 179 192 192 176 184 181 188 207 214 216 211 234 210 168 205 168 159 178 191 198 198 193 195 196 197 198 194 193 192 191 189 193 193 193 193 194 193 194 196 193
185 201 191 195 192 184 178 204 199 207 210 208 209 213 216 220 203 206 214 191 176 186 199 204 203 205 208 207 206 204 204 203 201 201 204 205 204 204 205 205 205 207 204
205 221 212 204 195 204 199 200 221 213 216 227 220 222 213 202 213 214 214 209 210 187 185 196 208 212 216 216 214 213 212 211 210 211 212 213 214 214 215 216 216 216 213
210 222 227 210 213 218 218 228 201 228 221 230 228 211 225 219 212 216 221 222 208 216 201 177 197 213 220 222 222 222 219 215 215 217 219 220 221 221 221 222 222 222 221
216 225 222 212 227 222 221 230 231 236 241 238 252 236 233 231 229 220 225 223 224 220 222 206 198 204 213 222 225 228 227 224 220 221 224 225 225 225 223 224 225 226 226
220 226 238 212 230 232 232 229 227 227 229 234 247 244 236 227 227 228 229 231 225 226 227 222 228 227 201 208 218 226 230 232 228 225 226 228 229 228 225 226 226 226 226
225 222 230 231 228 232 230 236 236 244 238 222 245 254 245 216 214 221 221 225 233 227 225 220 222 229 244 218 201 210 224 232 235 232 230 229 229 228 226 226 226 227 228
227 235 231 236 236 236 229 232 235 237 244 233 235 253 270 267 254 206 215 224 228 232 236 228 221 221 229 237 226 201 210 222 232 237 235 230 228 227 228 229 229 229 230
227 226 232 232 236 239 234 235 229 239 246 246 232 236 257 290 280 272 223 208 217 227 239 243 232 222 225 232 230 231 202 215 225 234 238 235 231 228 229 231 232 233 231
226 229 230 233 234 241 241 244 241 240 239 246 246 240 240 244 249 260 268 262 236 225 222 230 239 239 231 229 234 229 194 209 221 230 236 238 237 234 232 232 235 236 235
225 225 228 233 234 237 236 235 236 235 241 247 252 251 247 249 246 247 254 254 255 251 231 230 234 235 238 236 232 213 188 203 215 223 229 234 237 237 236 236 236 238 239
224 223 232 233 237 235 237 235 231 240 234 238 244 247 246 252 260 262 263 264 265 258 236 231 229 231 240 241 233 194 196 203 214 221 228 233 237 239 239 238 238 240 242
238 230 232 234 238 237 236 233 237 235 234 240 246 250 253 250 256 258 261 266 266 261 243 241 239 240 244 247 251 208 219 192 208 216 223 230 233 234 234 237 238 240 242
241 235 236 235 236 237 235 233 236 236 231 234 241 241 247 251 250 250 251 255 265 270 264 247 238 236 241 243 229 230 231 168 177 192 204 212 221 230 232 236 239 241 241
251 247 239 237 237 236 231 227 228 228 230 233 239 247 252 255 254 254 252 251 250 260 269 283 275 274 272 269 199 229 216 159 162 182 191 199 212 227 234 234 237 240 240
238 238 239 239 238 238 232 225 233 228 228 233 237 238 245 255 254 253 252 254 252 249 256 268 278 282 265 275 277 259 245 238 186 168 178 181 186 199 219 226 235 242 241
230 224 231 235 236 234 229 227 234 231 229 235 242 254 263 260 254 262 260 257 256 252 254 260 264 272 274 271 275 282 293 286 280 123 139 139 141 147 157 160 192 221 237
205 215 212 227 243 247 237 234 229 225 227 244 261 270 277 280 274 272 267 268 268 260 252 255 262 267 273 286 283 271 315 341 331 106 123 125 121 118 108 104 106 108 103
171 189 185 200 219 238 242 239 223 210 205 239 292 295 297 296 289 283 271 270 272 272 260 256 266 270 277 303 293 269 302 20 350 26 43 85 121 127 116 108 94 90 94
161 159 147 146 151 162 312 259 207 163 133 100 39 26 32 29 27 10 347 338 315 296 286 271 276 302 342 348 320 305 314 307 67 358 304 246 143 134 134 120 91 74 81
111 114 110 108 90 73 53 52 48 84 76 64 58 55 64 58 65 66 54 45 28 5 347 345 2 20 5 353 356 335 306 298 313 354 313 331 346 15 49 71 78 87 84
105 96 91 90 87 67 61 65 68 90 84 70 61 55 53 60 62 80 82 74 58 49 39 27 43 25 17 11 359 11 10 348 353 350 317 304 332 33 88 84 88 91 89
95 86 80 80 81 67 58 62 83 99 84 71 61 54 60 54 41 58 77 71 62 51 49 55 55 42 35 22 14 27 27 111 123 55 333 320 353 341 89 114 119 115 113
87 86 82 79 77 66 47 42 39 106 93 82 71 59 56 63 41 50 83 83 76 72 73 71 66 64 55 36 9 6 5 343 36 62 17 330 328 312 224 139 133 153 160
89 87 78 73 73 68 49 36 19 93 92 89 81 73 59 54 45 37 71 75 72 64 65 75 73 73 67 62 40 19 4 359 5 41 33 330 331 324 305 88 47 142 167